OBJECT D, 63294

Orbit data source: Space-Track

You're viewing an uncataloged RSO

Recently launched and/or uncataloged RSOs may have evolving metadata. Metadata may include the following, but is not limited to: Owner, Manufacturer, Bus, Motor, and Mission.

OBJECT D, 63294 is a Chinese satellite in SSO that was launched on Mon, 17 Mar 2025 UTC via a GUSHENXING 1 launch vehicle from the Jiuquan Satellite Launch Center, China (JSC). Unknown objects in Earth's orbit typically refer to objects detected orbiting the Earth but have not yet been identified or cataloged. These objects could be anything from previously untracked satellites, spent rocket stages, debris from satellite collisions, or even natural meteoroids temporarily captured by Earth's gravity.

Loading next visibility...
Identifier
63294, 2025-055D
Orbit
SSO
Country
Flag of CNCN / PRC
Related business
None
Manufacturer
Unknown
Mission
Operational Commercial Meteo Radio Occ.
Bus & Motor
Unknown
Mass
Unknown
Launch date (UTC)
2025-03-17 (1 year ago)
Launch vehicle
GUSHENXING 1
Launch site
Jiuquan Satellite Launch Center, China (JSC)
Object type
Unknown
Shape & HBR
Box + 1 Pan, 2.5 m
Radar Cross Section
5.339 m², Medium (>0.1 m² and < 1m²)

Expand to show TLE details & history
Last TLE update: 7 hours ago

TLE from 7 hours ago
0 OBJECT D
1 63294U 25055D   26254.94650531  .00007363  00000-0  36614-3 0  9995
2 63294  97.6630  35.6383 0014492 194.9159 165.1649 15.17847507 82167
Epoch: 2026-09-11T22:42Z
TLE epoch observation values (Epoch: 2026-09-11T22:42:58.058Z)
Latitude
-0.00002°
Longitude
63.93383°
Altitude
525.083 km
Speed
7.595 km/s
True Right ascension
02h 22m 33s
True Declination
0° 00' 00"
Sunlit
Object was in full shadow at epoch
Visualization orbit readout
Latitude
Unknown
Longitude
Unknown
Altitude
Unknown
Speed
Unknown
Apparent Right ascension
Unknown
Apparent Declination
Unknown
Sunlit
N/A
Visualization observer readout
Local Sidereal Time
22:08:03
Azimuth
Unknown
Elevation
Unknown
Doppler factor
Unknown
Orbital elements
Apogee altitude
519.308 km
Perigee altitude
499.346 km
Semi-major axis
6,887.464 km
Eccentricity
0.00145
Inclination
97.663°
RAAN
35.6383°
Arg. of periapsis
194.9159°
True anomaly
165.20734°
Mean anomaly
165.1649°
Eccentric anomaly
165.18613°
Mean motion
3.79712 °/min
Orbital period
94.81 mins
BSTAR
0.00036614
Loading maneuver chart data...
Computing Atmospheric mass density...
Loading historical data...
Loading historical data...
Loading historical data...
Loading historical data...
Loading historical data...
Loading historical data...
Loading historical data...

Documentation

Showing up to 5 results
|